Temperature
18 18 18 18 18 18 18 18 18 18 18 18 18 18 18 18 18 18 18 18 19 18 18 18 18 18 18 18 18 18 18 18 18 18 17 17 17 17 17 17 16 16 16
18 18 18 18 18 18 18 18 18 18 18 18 18 18 18 18 18 18 18 18 18 19 18 18 18 18 18 18 18 18 18 18 18 18 18 17 17 17 17 17 17 17 16
18 18 18 18 18 18 18 18 18 18 18 18 18 18 18 18 18 18 18 18 18 18 19 19 18 18 18 18 18 18 18 18 18 18 18 18 17 17 17 17 17 17 17
18 18 18 18 18 18 18 18 18 18 18 18 18 18 18 18 18 18 18 18 18 18 18 19 19 19 19 19 19 19 19 18 18 18 18 18 18 18 17 17 17 17 17
17 17 17 17 17 17 17 17 17 18 18 18 18 18 18 18 18 18 18 18 18 18 18 18 19 19 19 19 19 19 19 19 19 18 18 18 18 18 18 17 17 17 17
17 17 17 17 17 17 17 17 17 17 17 17 17 17 17 18 18 18 18 18 18 18 18 18 18 18 19 19 19 19 19 19 19 19 18 18 18 18 18 18 17 17 17
16 16 16 16 16 16 16 17 17 17 17 17 17 17 17 17 17 17 18 18 18 18 18 18 18 18 18 18 19 19 19 19 19 19 18 18 18 18 18 18 17 17 17
16 16 16 16 16 16 16 16 16 16 16 16 16 16 17 17 17 17 17 17 18 18 18 17 17 17 18 18 18 18 19 19 19 19 19 18 18 18 18 18 17 17 17
16 16 16 16 16 15 16 16 16 15 16 16 16 16 16 18 18 17 17 17 17 17 17 17 17 17 17 17 17 17 18 18 18 18 18 18 18 18 18 18 17 17 17
16 15 15 15 15 15 15 15 15 15 15 15 16 16 16 16 17 17 17 17 17 17 17 17 17 17 17 17 17 17 17 18 18 18 18 18 18 18 18 17 17 17 17
15 15 15 15 15 15 14 15 15 14 14 15 15 15 15 15 15 16 17 17 17 16 16 16 16 16 16 16 16 16 17 17 17 17 17 17 17 17 17 17 17 17 17
15 14 14 14 14 14 14 14 14 14 14 14 14 15 15 15 16 16 16 16 16 16 16 16 16 16 16 16 15 16 16 16 16 17 17 17 17 17 17 17 17 17 17
15 14 14 14 14 14 14 14 14 14 14 14 14 14 14 15 15 15 16 16 16 16 15 15 15 15 15 15 15 15 15 16 16 16 16 16 16 17 17 17 17 17 17
15 15 14 14 14 14 14 13 13 13 13 13 14 14 14 14 15 15 15 15 15 15 15 15 14 14 14 14 15 15 15 15 15 15 16 16 16 16 16 17 17 17 16
15 14 14 14 13 13 13 14 13 13 13 13 13 14 14 14 14 15 15 15 15 15 14 14 14 14 14 14 14 14 14 14 15 15 15 15 15 15 16 16 16 16 16
14 14 14 13 13 13 13 13 13 13 13 13 13 13 13 14 14 14 14 14 15 14 14 14 14 13 13 13 14 14 14 14 14 14 14 14 14 15 15 15 15 15 15
14 14 14 13 13 13 13 13 13 13 13 13 13 13 13 14 14 14 14 14 14 14 14 13 13 13 13 13 13 13 13 13 13 13 13 14 14 14 14 14 14 14 14
14 13 13 13 12 12 12 12 12 12 12 13 13 13 13 13 13 14 14 14 14 14 14 13 12 12 12 12 12 12 12 12 12 12 13 13 13 13 13 13 13 13 14
13 13 13 12 12 12 12 12 12 12 12 12 12 13 13 13 13 13 13 13 13 13 13 13 12 12 12 12 12 12 12 12 12 12 12 12 12 12 12 13 13 13 13
12 12 12 12 12 12 12 12 12 12 12 12 12 12 12 12 13 13 13 13 13 12 12 12 12 11 11 11 12 12 11 11 11 11 11 11 12 12 12 12 12 12 12
11 11 12 12 12 12 12 12 11 11 11 11 12 12 12 12 12 12 12 12 12 12 12 11 11 11 11 11 12 12 11 11 11 11 11 11 11 11 11 11 11 11 12
10 11 11 11 11 11 12 12 11 11 11 11 11 11 11 11 11 11 11 11 12 12 11 11 11 11 11 11 11 12 12 12 11 11 11 11 10 10 10 10 11 11 11
10 10 10 11 11 11 11 11 11 11 11 11 11 11 11 11 11 11 11 11 11 11 11 11 11 11 11 11 11 11 11 12 11 10 11 11 10 10 9 10 10 10 10
9 9 10 10 10 11 11 11 11 11 11 10 11 11 11 10 10 10 10 10 10 10 10 11 10 10 10 10 10 11 11 11 10 10 10 11 10 10 9 9 9 9 9
9 9 9 9 10 10 11 11 11 10 10 10 10 10 10 10 10 10 10 10 10 10 10 10 11 11 10 10 10 10 11 11 11 10 10 11 10 10 10 9 9 9 9
8 8 9 9 9 10 10 10 11 10 10 10 10 10 10 10 10 10 10 10 10 9 10 10 10 10 9 9 10 10 11 12 11 10 9 10 10 10 10 9 9 8 8
Wind_Speed
9 9 8 9 11 11 10 9 10 10 10 11 12 12 12 12 12 12 10 11 14 16 17 17 17 17 18 19 20 21 22 24 26 28 29 29 29 28 28 27 27 26 26
9 9 10 10 11 11 11 9 11 10 10 10 11 12 12 13 12 12 13 12 14 16 17 18 17 17 17 18 20 21 22 23 25 27 28 30 30 30 29 29 28 28 28
11 10 11 11 11 12 12 11 11 10 10 11 12 13 12 12 12 12 13 12 13 14 17 18 18 18 18 18 19 19 21 22 23 25 27 29 30 30 30 30 29 29 28
12 10 11 11 11 11 10 10 11 11 11 10 10 10 10 9 11 12 13 12 12 13 14 17 18 18 18 19 19 19 20 22 23 25 27 28 29 30 30 30 30 29 29
10 10 10 10 11 10 11 11 10 10 12 11 10 10 11 11 11 12 13 13 13 14 14 14 16 18 19 20 21 21 21 21 23 25 26 27 28 29 30 30 30 30 29
9 9 9 10 11 11 11 11 12 12 12 11 11 12 11 11 12 12 14 13 12 15 16 16 14 15 19 21 21 22 22 22 22 24 26 27 28 29 29 30 30 30 30
8 8 10 9 10 10 11 13 12 14 12 10 10 11 13 15 15 13 14 13 14 13 13 14 14 14 12 17 20 21 21 21 21 23 25 27 28 28 29 29 29 30 29
8 8 9 11 10 10 12 12 12 11 11 9 8 8 9 10 13 15 14 13 14 11 12 14 13 12 13 13 10 14 16 18 19 20 22 24 26 27 28 29 29 29 29
8 8 10 11 11 12 11 11 12 13 11 10 10 9 8 9 7 8 12 12 12 11 11 12 12 13 13 12 11 9 10 12 14 17 18 20 22 24 26 28 28 28 28
8 9 9 10 11 11 11 12 12 11 12 12 11 12 13 11 8 7 8 10 12 11 12 10 11 10 11 9 7 3 2 4 7 9 10 13 16 19 22 25 28 28 28
7 8 9 10 10 11 12 12 12 13 12 13 12 11 12 13 14 12 10 8 9 9 9 9 8 7 7 6 5 2 3 2 1 1 2 4 8 12 17 21 25 27 28
7 8 9 10 10 10 11 12 12 14 13 14 13 12 12 11 11 12 14 12 9 8 7 5 5 5 4 4 3 6 5 5 5 4 4 2 1 4 9 15 20 23 26
8 8 10 10 10 11 12 12 13 13 14 15 14 13 13 13 12 12 12 11 10 7 5 4 4 3 3 3 5 7 8 8 8 9 9 8 7 5 2 5 11 16 21
9 9 10 11 12 12 12 12 12 13 13 14 15 15 13 13 12 12 12 10 9 8 6 5 4 3 2 3 6 5 9 10 11 11 11 12 12 12 11 9 4 2 6
9 10 10 11 12 12 12 12 11 13 13 13 14 14 13 12 11 11 11 10 10 8 6 5 3 3 3 4 5 6 9 12 12 13 13 14 14 14 14 14 13 11 9
9 10 11 11 12 12 12 12 12 12 12 12 11 12 12 11 10 10 10 9 9 7 5 3 3 4 4 5 6 9 12 15 15 14 14 14 15 15 16 16 16 15 14
10 10 10 11 11 11 11 11 12 12 12 11 11 11 12 11 9 8 8 8 7 7 5 4 4 5 6 7 7 8 10 10 13 15 15 15 16 16 16 17 17 17 16
11 10 10 11 11 11 10 11 11 10 10 10 9 9 10 8 8 7 6 6 6 6 8 8 5 5 6 8 8 8 8 10 12 15 16 16 16 16 16 16 16 16 16
12 11 10 10 10 10 10 9 9 8 7 7 6 6 6 5 5 4 4 5 5 6 7 9 6 4 5 7 9 9 10 8 11 14 15 16 16 16 16 16 15 14 14
12 12 11 10 10 9 9 8 7 6 5 4 4 3 2 1 3 4 4 6 7 9 9 10 8 6 6 6 8 9 9 8 8 9 10 12 15 16 16 16 15 13 12
13 12 12 11 10 9 7 6 5 4 3 3 3 4 4 5 6 5 6 8 9 9 9 9 9 8 7 7 7 8 9 9 8 7 8 8 8 8 10 13 14 13 12
12 12 13 12 11 9 2 1 5 3 1 1 3 5 6 9 12 13 13 11 9 9 9 8 8 9 8 7 7 7 8 8 7 5 6 7 7 8 8 11 13 13 13
12 12 12 12 12 8 6 5 5 4 3 3 4 6 7 9 10 11 13 14 13 11 7 6 9 10 9 8 7 7 6 7 7 5 5 7 7 7 8 12 13 13 13
11 11 11 12 12 9 10 9 7 6 4 4 5 8 9 9 10 11 12 13 12 11 9 9 10 9 9 7 7 8 10 9 8 5 2 5 6 6 7 9 11 11 11
11 11 11 11 12 9 12 12 10 8 7 7 7 8 10 10 10 11 14 14 13 11 14 16 14 13 12 9 3 6 7 7 8 6 3 4 5 5 5 6 8 9 9
12 11 10 10 11 10 11 14 13 9 9 9 8 8 9 11 10 8 13 14 14 13 12 13 12 11 11 9 6 3 4 5 7 6 4 2 4 3 5 5 5 5 5
Wind_Direction
261 264 265 264 266 264 256 250 257 257 255 255 258 258 259 260 259 260 260 237 236 242 248 252 252 251 248 243 239 237 235 230 225 222 220 220 221 222 223 223 224 224 223
269 272 270 266 266 267 265 262 258 256 254 254 254 256 258 260 259 260 263 256 234 237 245 251 253 252 252 250 246 242 239 233 226 221 219 220 221 222 223 224 224 224 225
271 271 273 271 268 267 263 259 260 257 251 248 248 250 251 252 256 259 263 267 264 243 236 242 248 252 255 255 252 248 244 237 229 222 219 219 219 221 222 223 224 224 225
279 277 276 276 277 274 269 264 259 258 255 251 251 254 255 253 255 257 257 255 259 265 252 236 238 246 253 258 257 253 248 242 233 224 219 218 219 220 221 222 223 223 224
289 284 282 283 283 277 273 270 267 262 260 254 251 249 250 251 250 252 253 253 253 255 260 257 239 240 248 254 255 254 251 245 235 227 221 218 218 219 220 221 221 222 222
301 300 289 289 289 283 278 273 271 264 260 257 257 257 249 248 249 249 251 250 249 251 253 259 259 248 237 240 247 251 252 249 240 231 225 221 219 218 218 219 220 220 220
314 306 301 304 294 287 285 282 277 271 264 257 258 256 251 247 248 247 245 246 246 248 254 256 257 260 255 234 233 241 248 249 244 237 230 224 221 218 217 218 218 219 219
312 305 308 301 297 293 283 281 278 275 272 258 248 257 261 252 239 238 238 239 243 243 246 248 248 249 257 263 249 233 241 248 247 241 235 227 223 219 216 216 217 217 217
307 308 303 300 300 291 287 285 281 274 273 266 247 245 253 256 255 231 230 234 236 237 240 244 245 247 249 255 261 243 238 242 246 243 238 230 224 220 217 216 216 215 215
305 307 304 301 297 293 290 283 279 277 271 268 257 245 249 264 264 255 230 228 228 233 239 244 246 244 246 251 251 266 246 243 242 240 238 235 227 222 219 218 217 215 213
302 305 307 305 300 294 293 290 286 277 270 266 263 257 251 249 247 253 254 239 228 228 229 234 243 249 246 241 238 173 133 137 147 199 227 242 235 228 222 221 220 217 214
307 310 310 306 299 297 294 288 284 277 271 268 265 259 252 247 240 239 246 246 242 231 217 222 232 231 223 211 158 108 110 99 91 87 81 66 273 240 230 225 223 221 217
310 317 311 304 300 297 292 288 282 277 273 267 262 258 253 250 252 249 248 248 244 232 211 205 205 198 188 165 128 119 102 93 86 83 80 73 62 50 24 235 228 225 222
305 312 304 300 298 297 294 290 283 277 273 269 265 260 257 253 250 246 245 243 238 227 212 197 169 164 151 133 113 128 106 92 87 82 79 76 69 62 56 53 64 163 201
293 298 298 298 299 300 298 294 284 281 278 272 267 262 255 253 249 245 241 238 235 226 212 190 167 144 134 119 128 123 108 94 87 82 79 77 74 69 65 62 64 71 84
284 288 291 295 299 300 299 296 290 283 279 274 268 264 259 255 248 242 237 234 232 230 213 171 149 142 132 126 113 111 107 100 86 84 82 80 77 73 71 70 70 71 75
276 279 285 291 295 299 303 301 299 296 288 283 276 266 259 256 250 242 233 228 221 210 181 139 124 124 126 122 120 119 120 109 94 85 85 83 81 78 74 72 71 71 72
270 272 279 285 290 297 303 304 304 304 297 290 285 276 266 255 243 235 224 213 201 186 161 140 130 126 120 119 116 113 109 103 99 90 87 85 84 81 78 76 74 71 70
270 268 271 278 286 292 297 302 305 310 312 310 305 292 281 257 230 210 194 173 157 144 135 134 128 117 120 122 119 112 106 109 107 108 99 91 87 83 79 76 73 70 68
274 267 264 269 276 282 287 295 301 312 325 332 339 336 317 247 171 152 142 136 132 128 128 127 126 127 128 139 136 128 120 111 107 106 99 103 102 94 84 76 69 65 63
281 273 266 264 265 267 273 287 294 302 324 355 21 30 47 75 91 113 125 126 129 128 129 132 135 137 141 152 142 133 123 118 107 111 117 117 114 99 91 81 67 59 58
289 279 268 263 259 257 145 301 284 263 247 74 75 74 79 85 87 87 88 92 106 127 134 138 139 136 137 139 133 141 143 137 119 106 112 105 98 89 76 69 59 57 54
296 286 275 264 256 241 174 200 252 252 198 148 120 110 99 95 97 103 95 89 80 74 90 117 123 125 127 128 137 133 109 105 98 110 122 113 106 99 94 79 71 63 55
298 290 282 272 259 235 184 192 214 218 175 147 135 125 120 119 116 117 114 105 95 79 82 98 104 103 104 102 105 110 115 117 114 97 112 117 117 112 106 96 90 77 65
296 292 282 276 264 239 191 190 207 195 166 152 144 137 133 129 125 129 121 114 108 97 77 77 80 84 71 59 73 147 154 144 123 102 83 111 122 124 110 101 114 120 96
286 287 280 274 266 251 202 192 207 199 168 154 144 140 138 136 141 143 134 130 126 123 119 111 106 112 104 89 53 76 135 138 132 111 79 96 124 149 127 93 65 63 81
Height
1537 1537 1535 1534 1534 1534 1534 1533 1533 1533 1533 1533 1534 1534 1534 1535 1534 1534 1534 1533 1534 1535 1535 1536 1537 1537 1538 1539 1540 1541 1542 1542 1543 1544 1546 1547 1548 1549 1551 1553 1555 1557 1559
1533 1532 1531 1530 1529 1529 1529 1528 1528 1528 1528 1528 1528 1529 1529 1529 1529 1529 1529 1529 1529 1530 1531 1531 1532 1533 1534 1534 1535 1536 1537 1538 1539 1540 1541 1542 1543 1544 1546 1548 1550 1552 1554
1528 1527 1526 1525 1525 1524 1523 1523 1522 1523 1522 1522 1522 1523 1523 1523 1524 1523 1524 1524 1524 1525 1525 1526 1527 1528 1528 1529 1530 1531 1532 1533 1534 1535 1536 1537 1538 1539 1541 1543 1545 1547 1549
1525 1523 1522 1521 1520 1519 1518 1517 1516 1517 1516 1516 1517 1517 1517 1517 1517 1517 1517 1518 1518 1519 1520 1520 1521 1522 1522 1523 1524 1525 1526 1527 1528 1529 1530 1531 1533 1534 1535 1537 1539 1541 1543
1521 1519 1518 1516 1514 1513 1512 1511 1510 1510 1509 1509 1509 1510 1510 1510 1510 1510 1511 1511 1512 1512 1513 1514 1515 1515 1516 1516 1517 1518 1519 1520 1521 1522 1524 1525 1527 1528 1530 1532 1533 1535 1538
1517 1515 1514 1511 1510 1508 1506 1505 1504 1503 1503 1503 1503 1502 1502 1502 1502 1502 1503 1504 1505 1506 1507 1507 1508 1508 1508 1509 1510 1511 1512 1513 1514 1515 1517 1519 1520 1522 1524 1526 1528 1530 1532
1514 1511 1510 1507 1505 1503 1501 1500 1499 1497 1496 1497 1496 1495 1494 1494 1494 1494 1495 1496 1497 1499 1499 1500 1501 1502 1502 1502 1502 1503 1504 1504 1506 1508 1509 1511 1513 1515 1517 1519 1521 1523 1526
1510 1509 1506 1504 1502 1499 1496 1495 1493 1491 1490 1491 1490 1489 1488 1488 1486 1487 1488 1489 1490 1491 1492 1493 1494 1494 1495 1496 1495 1495 1496 1497 1498 1500 1502 1504 1506 1508 1510 1512 1515 1517 1519
1507 1504 1501 1499 1497 1495 1493 1490 1488 1487 1485 1485 1485 1485 1484 1481 1481 1481 1480 1481 1482 1483 1484 1486 1487 1487 1488 1488 1488 1488 1488 1489 1490 1492 1494 1497 1499 1501 1504 1506 1508 1510 1513
1503 1501 1498 1495 1492 1490 1488 1485 1484 1482 1481 1480 1479 1478 1478 1478 1478 1476 1476 1476 1476 1476 1478 1479 1480 1481 1481 1482 1482 1482 1482 1483 1483 1485 1487 1490 1492 1494 1497 1499 1501 1503 1506
1500 1497 1494 1491 1488 1485 1483 1480 1478 1476 1475 1474 1474 1473 1472 1472 1472 1472 1471 1472 1471 1471 1472 1473 1474 1475 1475 1476 1476 1476 1476 1477 1478 1480 1482 1484 1486 1488 1490 1492 1494 1496 1499
1497 1494 1491 1487 1484 1481 1478 1475 1472 1471 1469 1468 1467 1467 1466 1466 1465 1466 1466 1466 1466 1467 1467 1467 1468 1469 1470 1471 1471 1472 1472 1473 1474 1476 1477 1478 1480 1482 1483 1485 1487 1490 1493
1494 1490 1487 1483 1480 1477 1474 1470 1467 1465 1463 1461 1460 1459 1459 1459 1460 1460 1460 1460 1461 1462 1462 1463 1464 1465 1466 1467 1468 1469 1470 1471 1471 1472 1473 1475 1476 1477 1478 1479 1481 1484 1487
1490 1486 1482 1479 1476 1473 1469 1466 1463 1460 1457 1455 1454 1453 1452 1452 1453 1453 1454 1455 1456 1457 1458 1459 1460 1461 1463 1464 1465 1467 1468 1469 1469 1470 1471 1471 1472 1473 1474 1475 1477 1479 1481
1485 1482 1478 1475 1472 1468 1465 1461 1458 1455 1452 1450 1448 1447 1446 1446 1446 1447 1448 1450 1452 1452 1454 1455 1457 1458 1460 1462 1463 1465 1466 1467 1468 1469 1469 1469 1470 1470 1471 1472 1473 1475 1477
1480 1477 1474 1471 1468 1464 1461 1457 1453 1450 1447 1444 1442 1441 1440 1440 1441 1441 1442 1444 1446 1449 1450 1451 1453 1456 1458 1460 1462 1464 1465 1466 1467 1468 1468 1469 1469 1469 1470 1470 1471 1472 1474
1475 1472 1470 1467 1464 1460 1457 1453 1449 1446 1442 1440 1438 1436 1435 1435 1435 1436 1438 1439 1441 1444 1447 1449 1451 1454 1456 1459 1461 1463 1464 1466 1466 1467 1468 1469 1469 1469 1470 1470 1471 1472 1473
1469 1467 1465 1463 1460 1457 1453 1450 1446 1442 1439 1436 1434 1432 1431 1431 1431 1432 1433 1435 1438 1441 1444 1446 1449 1452 1455 1457 1460 1462 1464 1466 1467 1468 1468 1469 1470 1470 1470 1471 1471 1472 1473
1463 1462 1460 1458 1456 1453 1450 1447 1443 1440 1436 1433 1431 1429 1427 1427 1427 1429 1430 1432 1435 1438 1442 1445 1448 1451 1454 1457 1460 1462 1464 1466 1468 1468 1469 1470 1470 1471 1471 1472 1472 1473 1474
1457 1456 1454 1453 1451 1449 1447 1444 1441 1438 1435 1432 1429 1427 1425 1425 1425 1427 1429 1431 1433 1437 1440 1444 1448 1451 1454 1458 1461 1463 1465 1467 1469 1470 1471 1471 1471 1472 1472 1472 1473 1473 1474
1451 1449 1448 1447 1446 1445 1444 1442 1439 1437 1434 1431 1429 1427 1425 1424 1425 1426 1428 1431 1433 1436 1440 1444 1448 1452 1455 1459 1462 1464 1466 1468 1470 1472 1473 1473 1474 1474 1474 1474 1474 1474 1474
1444 1443 1442 1442 1442 1442 1440 1438 1437 1436 1434 1432 1429 1428 1426 1425 1426 1427 1429 1432 1435 1438 1442 1445 1449 1453 1456 1459 1462 1465 1467 1469 1471 1473 1474 1475 1475 1476 1475 1475 1474 1474 1474
1439 1436 1435 1435 1436 1436 1435 1435 1434 1434 1433 1432 1430 1429 1429 1428 1429 1429 1432 1435 1438 1442 1445 1448 1452 1455 1458 1460 1463 1465 1467 1469 1471 1473 1475 1475 1477 1477 1476 1475 1475 1474 1474
1433 1431 1429 1429 1429 1430 1431 1431 1432 1432 1432 1431 1431 1431 1431 1431 1432 1433 1435 1438 1441 1444 1448 1451 1454 1457 1459 1461 1463 1465 1466 1468 1470 1472 1475 1476 1477 1478 1478 1476 1475 1475 1474
1428 1425 1423 1422 1422 1424 1426 1427 1429 1430 1430 1431 1431 1432 1433 1434 1436 1437 1439 1441 1444 1448 1451 1454 1456 1458 1460 1462 1464 1467 1469 1470 1472 1473 1475 1476 1477 1478 1478 1478 1477 1475 1474
1422 1420 1417 1416 1416 1417 1420 1423 1425 1428 1429 1430 1432 1433 1435 1436 1438 1440 1443 1444 1447 1450 1453 1456 1458 1460 1462 1463 1465 1467 1469 1471 1472 1473 1474 1475 1477 1478 1478 1479 1478 1477 1475